This is the latest recevied weather packets stored in our database for station/object DM1RG-6. If no packets are shown the sender has not sent any weather packets the latest 1 day(s).
| Time | Temp. | Humidity | Pressure | Rain* | Wind** | Luminosity | Snow |
|---|---|---|---|---|---|---|---|
| 1778073844 | 12.78° C | 89% | 1005.7 hPa | 0 mm | - | - | - |
| 1778073124 | 13.33° C | 89% | 1006 hPa | 0 mm | - | - | - |
| 1778068444 | 12.78° C | 90% | 1005.8 hPa | 0 mm | - | - | - |
| 1778067004 | 12.78° C | 91% | 1005.9 hPa | 0 mm | - | - | - |
| 1778066284 | 12.22° C | 91% | 1005.9 hPa | 0 mm | - | - | - |
| 1778065564 | 12.22° C | 91% | 1005.6 hPa | 0 mm | - | - | - |
| 1778064484 | 12.78° C | 92% | 1005.4 hPa | 0 mm | - | - | - |
| 1778064124 | 12.78° C | 91% | 1005.2 hPa | 0 mm | - | - | - |
| 1778063044 | 13.33° C | 92% | 1004.9 hPa | 0 mm | - | - | - |
| 1778061244 | 12.22° C | 100% | 1005 hPa | 0 mm | - | - | - |
| 1778060884 | 11.67° C | 100% | 1004.9 hPa | 0 mm | - | - | - |
| 1778059444 | 12.22° C | 100% | 1004.2 hPa | 0 mm | - | - | - |
| 1778059084 | 11.67° C | 100% | 1004.4 hPa | 0 mm | - | - | - |
| 1778056924 | 11.67° C | 100% | 1003.9 hPa | 0 mm | - | - | - |
| 1778056564 | 11.67° C | 100% | 1003.7 hPa | 0 mm | - | - | - |
| 1778055844 | 11.67° C | 100% | 1003.8 hPa | 0 mm | - | - | - |
| 1778055484 | 11.67° C | 100% | 1004 hPa | 0 mm | - | - | - |
| 1778055124 | 11.67° C | 100% | 1003.9 hPa | 0 mm | - | - | - |
| 1778052964 | 11.67° C | 100% | 1003.5 hPa | 0.25 mm | - | - | - |
| 1778052604 | 11.11° C | 100% | 1003.6 hPa | 0.25 mm | - | - | - |
| 1778052244 | 11.67° C | 100% | 1003.6 hPa | 0.25 mm | - | - | - |
| 1778051884 | 11.67° C | 100% | 1003.8 hPa | 0.25 mm | - | - | - |
| 1778051524 | 11.11° C | 100% | 1003.6 hPa | 0.25 mm | - | - | - |
| 1778050804 | 11.11° C | 100% | 1003.4 hPa | 0.25 mm | - | - | - |
| 1778050084 | 11.11° C | 100% | 1003.2 hPa | 0.51 mm | - | - | - |
* Rain latest hour (hover to see other rain measurements)
** Current wind speed in m/s (hover to see current wind gust speed)